When you browse on this site, cookies collect data to enhance your experience and personalize the content and advertising you see.
Visit our Privacy Policy to learn more. By continuing to use the site, you agree to this use of cookies and data.
  • In Romania
  • List of Countries
  • For 7 days
  • Water Temperature
  • Satellite Maps
  • Weather Map
  • Weather Widgets
  • user-avatar
    Login

    Hourly Weather Dodow

    Today, 20 February, Wednesday

    Time Temperature Precipitation Wind Pressure Humidity
    00:00 +3°C° 0.5 mm 5 mps 735 mmHg 83%
    01:00 +5°C° 0.5 mm 5 mps 735 mmHg 86%
    02:00 +3°C° 0 mm 5 mps 735 mmHg 87%
    03:00 +2°C° 0 mm 5 mps 735 mmHg 88%
    04:00 +1°C° 0 mm 5 mps 736 mmHg 90%
    05:00 +1°C° 0 mm 5 mps 736 mmHg 89%
    06:00 +1°C° 0 mm 5 mps 736 mmHg 88%
    07:00 +1°C° 0 mm 5 mps 736 mmHg 87%
    08:00 +2°C° 0 mm 6 mps 737 mmHg 83%
    09:00 +2°C° 0 mm 6 mps 737 mmHg 79%
    10:00 +3°C° 0 mm 6 mps 737 mmHg 76%
    11:00 +3°C° 0 mm 6 mps 737 mmHg 74%
    12:00 +3°C° 0 mm 6 mps 738 mmHg 72%
    13:00 +3°C° 0 mm 6 mps 738 mmHg 70%
    14:00 +3°C° 0 mm 6 mps 738 mmHg 70%
    15:00 +3°C° 0 mm 6 mps 738 mmHg 70%
    16:00 +3°C° 0 mm 5 mps 738 mmHg 70%
    17:00 +3°C° 0 mm 5 mps 739 mmHg 73%
    18:00 +4°C° 0 mm 4 mps 739 mmHg 76%
    19:00 +3°C° 0 mm 4 mps 739 mmHg 78%
    20:00 +3°C° 0 mm 4 mps 740 mmHg 79%
    21:00 +3°C° 0 mm 4 mps 740 mmHg 79%
    22:00 +3°C° 0 mm 4 mps 740 mmHg 79%
    23:00 +3°C° 0 mm 4 mps 740 mmHg 80%

    Tomorrow, 21 February, Thursday

    Time Temperature Precipitation Wind Pressure Humidity
    00:00 +3°C° 0 mm 4 mps 740 mmHg 81%
    01:00 +3°C° 0 mm 4 mps 741 mmHg 82%
    02:00 +3°C° 0 mm 4 mps 741 mmHg 82%
    03:00 +3°C° 0 mm 4 mps 741 mmHg 83%
    04:00 +1°C° 0 mm 4 mps 741 mmHg 84%
    05:00 +1°C° 0 mm 4 mps 741 mmHg 83%
    06:00 +1°C° 0 mm 4 mps 741 mmHg 82%
    07:00 +1°C° 0 mm 4 mps 741 mmHg 81%
    08:00 +2°C° 0 mm 5 mps 740 mmHg 76%
    09:00 +3°C° 0 mm 5 mps 740 mmHg 71%
    10:00 +4°C° 0 mm 6 mps 740 mmHg 66%
    11:00 +4°C° 0.2 mm 6 mps 740 mmHg 66%
    12:00 +4°C° 0.2 mm 6 mps 739 mmHg 65%
    13:00 +5°C° 0.2 mm 7 mps 739 mmHg 65%
    14:00 +5°C° 0.5 mm 7 mps 739 mmHg 68%
    15:00 +4°C° 0.5 mm 7 mps 738 mmHg 71%
    16:00 +4°C° 0.5 mm 7 mps 738 mmHg 73%
    17:00 +4°C° 0.4 mm 7 mps 738 mmHg 75%
    18:00 +4°C° 0.4 mm 7 mps 738 mmHg 77%
    19:00 +4°C° 0.4 mm 7 mps 738 mmHg 78%
    20:00 +4°C° 0.4 mm 7 mps 738 mmHg 80%
    21:00 +4°C° 0.4 mm 7 mps 738 mmHg 82%
    22:00 +4°C° 0.4 mm 7 mps 738 mmHg 84%
    23:00 +4°C° 0.5 mm 6 mps 737 mmHg 86%

    Day after tomorrow, 22 February, Friday

    Time Temperature Precipitation Wind Pressure Humidity
    00:00 +4°C° 0.5 mm 6 mps 737 mmHg 87%
    01:00 +4°C° 0.5 mm 6 mps 737 mmHg 89%
    02:00 +4°C° 0.4 mm 6 mps 737 mmHg 89%
    03:00 +4°C° 0.4 mm 6 mps 737 mmHg 89%
    04:00 +4°C° 0.4 mm 6 mps 737 mmHg 90%
    05:00 +3°C° 0.8 mm 6 mps 737 mmHg 88%
    06:00 +3°C° 0.8 mm 7 mps 738 mmHg 87%
    07:00 +3°C° 0.8 mm 7 mps 739 mmHg 85%
    08:00 0°C° 0.2 mm 7 mps 740 mmHg 81%
    09:00 -1°C° 0.2 mm 7 mps 741 mmHg 77%
    10:00 -2°C° 0.2 mm 6 mps 742 mmHg 74%
    11:00 -2°C° 0 mm 6 mps 743 mmHg 67%
    12:00 -2°C° 0 mm 6 mps 744 mmHg 61%
    13:00 -1°C° 0 mm 5 mps 745 mmHg 55%
    14:00 -1°C° 0 mm 5 mps 745 mmHg 54%
    15:00 -3°C° 0 mm 6 mps 746 mmHg 54%
    16:00 -3°C° 0 mm 6 mps 746 mmHg 54%
    17:00 -4°C° 0 mm 5 mps 747 mmHg 56%
    18:00 -5°C° 0 mm 5 mps 748 mmHg 58%
    19:00 -6°C° 0 mm 5 mps 748 mmHg 60%
    20:00 -6°C° 0 mm 5 mps 749 mmHg 58%
    21:00 -6°C° 0 mm 5 mps 749 mmHg 56%
    22:00 -7°C° 0 mm 4 mps 750 mmHg 54%
    23:00 -7°C° 0 mm 4 mps 750 mmHg 51%

    23 February, Saturday

    Time Temperature Precipitation Wind Pressure Humidity
    00:00 -7°C° 0 mm 4 mps 751 mmHg 49%
    01:00 -7°C° 0 mm 4 mps 751 mmHg 46%
    02:00 -6°C° 0 mm 3 mps 751 mmHg 45%
    03:00 -6°C° 0 mm 3 mps 751 mmHg 44%
    04:00 -6°C° 0 mm 3 mps 752 mmHg 42%
    05:00 -5°C° 0 mm 2 mps 752 mmHg 42%
    06:00 -6°C° 0 mm 2 mps 752 mmHg 42%
    07:00 -6°C° 0 mm 2 mps 752 mmHg 42%
    08:00 -5°C° 0 mm 2 mps 752 mmHg 38%
    09:00 -4°C° 0 mm 2 mps 752 mmHg 34%
    10:00 -4°C° 0 mm 3 mps 753 mmHg 29%
    11:00 -2°C° 0 mm 3 mps 752 mmHg 27%
    12:00 -1°C° 0 mm 2 mps 752 mmHg 25%
    13:00 -1°C° 0 mm 2 mps 752 mmHg 23%
    14:00 -1°C° 0 mm 2 mps 752 mmHg 24%
    15:00 -1°C° 0 mm 2 mps 752 mmHg 26%
    16:00 -1°C° 0 mm 2 mps 751 mmHg 28%
    17:00 -2°C° 0 mm 2 mps 751 mmHg 31%
    18:00 -1°C° 0 mm 1 mps 751 mmHg 34%
    19:00 -2°C° 0 mm 1 mps 752 mmHg 37%
    20:00 -2°C° 0 mm 1 mps 751 mmHg 38%
    21:00 -2°C° 0 mm 1 mps 751 mmHg 38%
    22:00 -2°C° 0 mm 1 mps 751 mmHg 38%
    23:00 -2°C° 0 mm 1 mps 751 mmHg 38%

    24 February, Sunday

    Time Temperature Precipitation Wind Pressure Humidity
    00:00 -4°C° 0 mm 2 mps 751 mmHg 37%
    01:00 -4°C° 0 mm 2 mps 751 mmHg 37%
    02:00 -4°C° 0 mm 2 mps 750 mmHg 37%
    03:00 -4°C° 0 mm 2 mps 750 mmHg 37%
    04:00 -4°C° 0 mm 2 mps 750 mmHg 37%
    05:00 -3°C° 0 mm 2 mps 750 mmHg 36%
    06:00 -3°C° 0 mm 2 mps 749 mmHg 35%
    07:00 -2°C° 0 mm 2 mps 749 mmHg 34%
    08:00 -2°C° 0 mm 3 mps 749 mmHg 32%
    09:00 -1°C° 0 mm 3 mps 749 mmHg 30%
    10:00 0°C° 0 mm 3 mps 748 mmHg 28%
    11:00 +1°C° 0 mm 4 mps 748 mmHg 28%
    12:00 +3°C° 0 mm 4 mps 748 mmHg 28%
    13:00 +4°C° 0 mm 4 mps 747 mmHg 28%
    14:00 +3°C° 0 mm 4 mps 747 mmHg 34%
    15:00 +3°C° 0 mm 3 mps 747 mmHg 39%
    16:00 +3°C° 0 mm 2 mps 746 mmHg 45%
    17:00 +3°C° 0 mm 2 mps 747 mmHg 49%
    18:00 +2°C° 0 mm 2 mps 747 mmHg 53%
    19:00 +1°C° 0 mm 2 mps 747 mmHg 57%
    20:00 +1°C° 0 mm 2 mps 747 mmHg 59%
    21:00 -1°C° 0 mm 2 mps 747 mmHg 61%
    22:00 -1°C° 0 mm 2 mps 747 mmHg 63%
    23:00 +1°C° 0 mm 1 mps 747 mmHg 63%

    25 February, Monday

    Time Temperature Precipitation Wind Pressure Humidity
    00:00 +1°C° 0 mm 1 mps 747 mmHg 64%
    01:00 +1°C° 0 mm 1 mps 747 mmHg 64%
    02:00 +1°C° 0 mm 1 mps 746 mmHg 64%
    03:00 +1°C° 0 mm 1 mps 746 mmHg 65%
    04:00 +1°C° 0 mm 1 mps 746 mmHg 65%
    05:00 -1°C° 0 mm 2 mps 746 mmHg 66%
    06:00 -1°C° 0 mm 2 mps 746 mmHg 67%
    07:00 -1°C° 0 mm 2 mps 746 mmHg 67%
    08:00 +1°C° 0 mm 2 mps 746 mmHg 64%
    09:00 +2°C° 0 mm 3 mps 746 mmHg 60%
    10:00 +3°C° 0 mm 3 mps 746 mmHg 56%
    11:00 +4°C° 0 mm 3 mps 746 mmHg 55%
    12:00 +5°C° 0 mm 3 mps 745 mmHg 55%
    13:00 +7°C° 0 mm 3 mps 745 mmHg 54%
    14:00 +6°C° 0 mm 4 mps 745 mmHg 57%
    15:00 +6°C° 0 mm 4 mps 745 mmHg 60%
    16:00 +5°C° 0 mm 4 mps 745 mmHg 62%
    17:00 +4°C° 0 mm 4 mps 745 mmHg 70%
    18:00 +3°C° 0 mm 3 mps 745 mmHg 77%
    19:00 +2°C° 0 mm 3 mps 745 mmHg 85%
    20:00 +2°C° 0 mm 3 mps 746 mmHg 88%
    21:00 +1°C° 0 mm 3 mps 746 mmHg 91%
    22:00 +1°C° 0 mm 3 mps 746 mmHg 94%
    23:00 +1°C° 0 mm 3 mps 745 mmHg 93%
    Show more